Location: Sungai Jaoh
(2.9167°N, 113.9167°E)
Time: 16:31:47
(UTC+00:00)

CRYOSAT 2 - Pass Details

Date: 30 November 2020
Orbit: 714 x 724 km, 92.0° (Epoch: 26 January)

Event Time Altitude Azimuth Distance (km) Brightness Sun altitude
Rises 21:34:22 0° 178° (S) 3,113 8.0 -10.1°
Reaches altitude 10° 21:36:39 10° 179° (S) 2,192 7.2 -9.6°
Maximum altitude 21:41:28 74° 264° (W) 742 4.3 -8.5°
Drops below altitude 10° 21:46:18 10° 349° (N) 2,187 6.6 -7.4°
Sets 21:48:35 0° 351° (N) 3,105 7.3 -6.8°
